| time (UTC) | temp F | wind direction | speed knots | gust knots | rain 1hr in | rain 24hr in | rain mn in | humidity % | barometer mb |
| 20260903212013 | 64 | 282 | 0.9 | 3.5 | 0.00 | 0.00 | 0.00 | 48 | 1019.5 |
| 20260903210113 | 64 | 181 | 0.9 | 2.6 | 0.00 | 0.00 | 0.00 | 47 | 1019.7 |
| 20260903205212 | 64 | 197 | 2.6 | 4.3 | 0.00 | 0.00 | 0.00 | 47 | 1019.7 |
| 20260903204214 | 64 | 177 | 1.7 | 3.5 | 0.00 | 0.00 | 0.00 | 48 | 1019.9 |
| 20260903202314 | 64 | 152 | 1.7 | 4.3 | 0.00 | 0.00 | 0.00 | 45 | 1019.9 |
| 20260903200312 | 64 | 180 | 0.0 | 0.0 | 0.00 | 0.00 | 0.00 | 44 | 1019.9 |
| 20260903195315 | 64 | 197 | 0.9 | 4.3 | 0.00 | 0.00 | 0.00 | 42 | 1020.3 |
| 20260903194313 | 64 | 181 | 0.9 | 1.7 | 0.00 | 0.00 | 0.00 | 40 | 1020.2 |
| 20260903192316 | 65 | 168 | 1.7 | 3.5 | 0.00 | 0.00 | 0.00 | 37 | 1020.4 |
| 20260903191413 | 65 | 160 | 0.9 | 1.7 | 0.00 | 0.00 | 0.00 | 36 | 1020.4 |
| 20260903190415 | 65 | 162 | 4.3 | 6.1 | 0.00 | 0.00 | 0.00 | 34 | 1020.6 |
| 20260903185414 | 64 | 135 | 1.7 | 2.6 | 0.00 | 0.00 | 0.00 | 32 | 1020.7 |
| 20260903184413 | 64 | 149 | 2.6 | 4.3 | 0.00 | 0.00 | 0.00 | 33 | 1020.7 |
| 20260903183513 | 65 | 179 | 4.3 | 7.8 | 0.00 | 0.00 | 0.00 | 32 | 1020.7 |
| 20260903182513 | 65 | 220 | 0.9 | 2.6 | 0.00 | 0.00 | 0.00 | 33 | 1020.8 |
| 20260903181516 | 64 | 246 | 2.6 | 3.5 | 0.00 | 0.00 | 0.00 | 32 | 1020.9 |
| 20260903180517 | 63 | 214 | 1.7 | 4.3 | 0.00 | 0.00 | 0.00 | 35 | 1020.9 |
| 20260903175614 | 62 | 221 | 1.7 | 2.6 | 0.00 | 0.00 | 0.00 | 34 | 1020.9 |
| 20260903174613 | 60 | 165 | 0.9 | 2.6 | 0.00 | 0.00 | 0.00 | 36 | 1021.0 |
| 20260903173712 | 60 | 151 | 0.9 | 4.3 | 0.00 | 0.00 | 0.00 | 38 | 1020.9 |
| 20260903172811 | 60 | 240 | 1.7 | 3.5 | 0.00 | 0.00 | 0.00 | 38 | 1021.1 |
| 20260903164914 | 58 | 205 | 0.9 | 3.5 | 0.00 | 0.00 | 0.00 | 45 | 1021.0 |
| 20260903163914 | 59 | 224 | 0.9 | 2.6 | 0.00 | 0.00 | 0.00 | 44 | 1021.2 |
| 20260903163011 | 58 | 174 | 1.7 | 3.5 | 0.00 | 0.00 | 0.00 | 45 | 1021.2 |
| 20260903162014 | 58 | 156 | 2.6 | 4.3 | 0.00 | 0.00 | 0.00 | 48 | 1021.3 |
| 20260903161014 | 58 | 178 | 0.0 | 1.7 | 0.00 | 0.00 | 0.00 | 51 | 1021.1 |
| 20260903160113 | 56 | 247 | 1.7 | 3.5 | 0.00 | 0.00 | 0.00 | 53 | 1021.2 |
| 20260903155114 | 55 | 167 | 0.0 | 0.0 | 0.00 | 0.00 | 0.00 | 59 | 1021.3 |
| 20260903154115 | 52 | 180 | 0.0 | 0.0 | 0.00 | 0.00 | 0.00 | 63 | 1021.3 |
| 20260903151213 | 48 | 180 | 0.0 | 0.0 | 0.00 | 0.00 | 0.00 | 70 | 1021.1 |
| 20260903150214 | 48 | 247 | 0.0 | 0.0 | 0.00 | 0.00 | 0.00 | 71 | 1021.0 |
| 20260903145212 | 47 | 247 | 0.0 | 0.0 | 0.00 | 0.00 | 0.00 | 71 | 1021.1 |
| 20260903143214 | 45 | 247 | 0.0 | 0.0 | 0.00 | 0.00 | 0.00 | 72 | 1020.9 |
| 20260903142216 | 45 | 247 | 0.0 | 0.0 | 0.00 | 0.00 | 0.00 | 73 | 1020.8 |
| 20260903141214 | 44 | 247 | 0.0 | 0.0 | 0.00 | 0.00 | 0.00 | 73 | 1020.9 |
| 20260903135218 | 45 | 247 | 0.0 | 0.0 | 0.00 | 0.00 | 0.00 | 71 | 1020.7 |
| 20260903134317 | 46 | 247 | 0.0 | 0.0 | 0.00 | 0.00 | 0.00 | 69 | 1020.7 |
| 20260903133317 | 46 | 247 | 0.0 | 0.0 | 0.00 | 0.00 | 0.00 | 69 | 1020.7 |
| 20260903132317 | 45 | 180 | 0.0 | 0.0 | 0.00 | 0.00 | 0.00 | 70 | 1020.6 |
| 20260903131319 | 45 | 180 | 0.0 | 0.0 | 0.00 | 0.00 | 0.00 | 71 | 1020.6 |
| 20260903130320 | 45 | 180 | 0.0 | 0.0 | 0.00 | 0.00 | 0.00 | 72 | 1020.7 |
| 20260903125418 | 45 | 180 | 0.0 | 0.0 | 0.00 | 0.00 | 0.00 | 71 | 1020.7 |
| 20260903124418 | 45 | 180 | 0.0 | 0.0 | 0.00 | 0.00 | 0.00 | 71 | 1020.9 |
| 20260903122418 | 45 | 180 | 0.0 | 0.0 | 0.00 | 0.00 | 0.00 | 71 | 1020.9 |
| 20260903120434 | 45 | 180 | 0.0 | 0.0 | 0.00 | 0.00 | 0.00 | 72 | 1021.1 |
| 20260903115518 | 45 | 180 | 0.0 | 0.0 | 0.00 | 0.00 | 0.00 | 71 | 1021.1 |
| 20260903114518 | 45 | 180 | 0.0 | 0.0 | 0.00 | 0.00 | 0.00 | 71 | 1021.2 |
| 20260903113617 | 45 | 180 | 0.0 | 0.0 | 0.00 | 0.00 | 0.00 | 71 | 1021.2 |
| 20260903112717 | 46 | 180 | 0.0 | 0.0 | 0.00 | 0.00 | 0.00 | 71 | 1021.2 |
| 20260903111719 | 46 | 180 | 0.0 | 0.0 | 0.00 | 0.00 | 0.00 | 72 | 1021.3 |
| 20260903110817 | 46 | 180 | 0.0 | 0.0 | 0.00 | 0.00 | 0.00 | 72 | 1021.3 |
| 20260903105820 | 46 | 180 | 0.0 | 0.0 | 0.00 | 0.00 | 0.00 | 72 | 1021.3 |
| 20260903104017 | 46 | 180 | 0.0 | 0.0 | 0.00 | 0.00 | 0.00 | 71 | 1021.4 |
| 20260903103018 | 46 | 180 | 0.0 | 0.0 | 0.00 | 0.00 | 0.00 | 70 | 1021.4 |
| 20260903102019 | 46 | 180 | 0.0 | 0.0 | 0.00 | 0.00 | 0.00 | 70 | 1021.6 |
| 20260903100017 | 46 | 180 | 0.0 | 0.0 | 0.00 | 0.00 | 0.00 | 70 | 1021.5 |
| 20260903095018 | 46 | 180 | 0.0 | 0.0 | 0.00 | 0.00 | 0.00 | 70 | 1021.5 |
| 20260903094021 | 47 | 180 | 0.0 | 0.0 | 0.00 | 0.00 | 0.00 | 71 | 1021.5 |
| 20260903093117 | 47 | 180 | 0.0 | 0.0 | 0.00 | 0.00 | 0.00 | 70 | 1021.6 |
| 20260903092121 | 47 | 180 | 0.0 | 0.0 | 0.00 | 0.00 | 0.00 | 70 | 1021.8 |
| 20260903090119 | 47 | 180 | 0.0 | 0.0 | 0.00 | 0.00 | 0.00 | 69 | 1021.8 |
| 20260903085134 | 47 | 180 | 0.0 | 0.0 | 0.00 | 0.00 | 0.00 | 70 | 1021.8 |
| 20260903084219 | 46 | 180 | 0.0 | 0.0 | 0.00 | 0.00 | 0.00 | 71 | 1021.9 |
| 20260903083219 | 46 | 180 | 0.0 | 0.0 | 0.00 | 0.00 | 0.00 | 72 | 1021.9 |
| 20260903082218 | 46 | 180 | 0.0 | 0.0 | 0.00 | 0.00 | 0.00 | 71 | 1022.0 |
| 20260903081219 | 46 | 180 | 0.0 | 0.0 | 0.00 | 0.00 | 0.00 | 72 | 1022.0 |
| 20260903080218 | 46 | 180 | 0.0 | 0.0 | 0.00 | 0.00 | 0.00 | 73 | 1021.9 |
| 20260903075218 | 45 | 180 | 0.0 | 0.0 | 0.00 | 0.00 | 0.00 | 74 | 1021.9 |
| 20260903074317 | 45 | 180 | 0.0 | 0.0 | 0.00 | 0.00 | 0.00 | 74 | 1021.8 |
| 20260903072418 | 45 | 180 | 0.0 | 0.0 | 0.00 | 0.00 | 0.00 | 74 | 1021.9 |
| 20260903071419 | 46 | 180 | 0.0 | 0.0 | 0.00 | 0.00 | 0.00 | 74 | 1021.9 |
| 20260903070517 | 46 | 180 | 0.0 | 0.0 | 0.00 | 0.00 | 0.00 | 74 | 1021.9 |
| 20260903064713 | 46 | 180 | 0.0 | 0.0 | 0.00 | 0.00 | 0.00 | 72 | 1022.0 |
| 20260903063715 | 46 | 180 | 0.0 | 0.0 | 0.00 | 0.00 | 0.00 | 73 | 1022.1 |
| 20260903062716 | 46 | 180 | 0.0 | 0.0 | 0.00 | 0.00 | 0.00 | 71 | 1022.1 |
| 20260903061816 | 46 | 180 | 0.0 | 0.0 | 0.00 | 0.00 | 0.00 | 70 | 1022.1 |
| 20260903060914 | 46 | 180 | 0.0 | 0.0 | 0.00 | 0.00 | 0.00 | 70 | 1022.1 |
| 20260903055916 | 46 | 180 | 0.0 | 0.0 | 0.00 | 0.00 | 0.00 | 69 | 1022.2 |
| 20260903052915 | 47 | 180 | 0.0 | 0.0 | 0.00 | 0.00 | 0.00 | 70 | 1022.4 |
| 20260903051914 | 47 | 180 | 0.0 | 0.0 | 0.00 | 0.00 | 0.00 | 68 | 1022.4 |
| 20260903050917 | 48 | 180 | 0.0 | 0.0 | 0.00 | 0.00 | 0.00 | 66 | 1022.6 |
| 20260903045916 | 48 | 180 | 0.0 | 0.0 | 0.00 | 0.00 | 0.00 | 67 | 1022.5 |
| 20260903044914 | 48 | 180 | 0.0 | 0.0 | 0.00 | 0.00 | 0.00 | 68 | 1022.7 |
| 20260903043917 | 48 | 180 | 0.0 | 0.0 | 0.00 | 0.00 | 0.00 | 66 | 1022.6 |
| 20260903042014 | 49 | 180 | 0.0 | 0.0 | 0.00 | 0.00 | 0.00 | 64 | 1022.7 |
| 20260903041015 | 50 | 180 | 0.0 | 0.0 | 0.00 | 0.00 | 0.00 | 64 | 1022.7 |
| 20260903040016 | 50 | 180 | 0.0 | 0.0 | 0.00 | 0.00 | 0.00 | 64 | 1022.7 |
| 20260903035016 | 50 | 180 | 0.0 | 0.0 | 0.00 | 0.00 | 0.00 | 62 | 1022.6 |
| 20260903034017 | 51 | 180 | 0.0 | 0.0 | 0.00 | 0.00 | 0.00 | 62 | 1022.6 |
| 20260903033015 | 51 | 180 | 0.0 | 0.0 | 0.00 | 0.00 | 0.00 | 61 | 1022.4 |
| 20260903032017 | 52 | 180 | 0.0 | 0.0 | 0.00 | 0.00 | 0.00 | 60 | 1022.3 |
| 20260903030033 | 53 | 180 | 0.0 | 0.0 | 0.00 | 0.00 | 0.00 | 57 | 1022.3 |
| 20260903025015 | 54 | 180 | 0.0 | 0.0 | 0.00 | 0.00 | 0.00 | 56 | 1022.2 |
| 20260903024017 | 54 | 180 | 0.0 | 0.0 | 0.00 | 0.00 | 0.00 | 55 | 1022.3 |
| 20260903022016 | 55 | 180 | 0.0 | 0.0 | 0.00 | 0.00 | 0.00 | 53 | 1022.5 |
| 20260903021014 | 56 | 181 | 0.0 | 0.0 | 0.00 | 0.00 | 0.00 | 52 | 1022.5 |
| 20260903020014 | 56 | 202 | 0.0 | 0.0 | 0.00 | 0.00 | 0.00 | 52 | 1022.5 |
| 20260903015016 | 56 | 157 | 0.0 | 0.0 | 0.00 | 0.00 | 0.00 | 51 | 1022.5 |
| 20260903014016 | 57 | 180 | 0.0 | 0.9 | 0.00 | 0.00 | 0.00 | 51 | 1022.6 |
| 20260903012017 | 58 | 225 | 0.0 | 0.0 | 0.00 | 0.00 | 0.00 | 49 | 1022.3 |
| 20260903011115 | 58 | 208 | 0.0 | 1.7 | 0.00 | 0.00 | 0.00 | 48 | 1022.4 |
| 20260903010213 | 58 | 247 | 0.0 | 1.7 | 0.00 | 0.00 | 0.00 | 49 | 1022.4 |
| 20260903005215 | 58 | 157 | 0.0 | 0.0 | 0.00 | 0.00 | 0.00 | 48 | 1022.4 |
| 20260903003217 | 59 | 150 | 0.0 | 1.7 | 0.00 | 0.00 | 0.00 | 47 | 1022.5 |
| 20260903002214 | 59 | 225 | 0.9 | 2.6 | 0.00 | 0.00 | 0.00 | 47 | 1022.5 |
| 20260903001215 | 60 | 215 | 2.6 | 6.1 | 0.00 | 0.00 | 0.00 | 47 | 1022.6 |
| 20260903000215 | 60 | 206 | 0.9 | 2.6 | 0.00 | 0.00 | 0.00 | 46 | 1022.5 |
| 20260902235218 | 60 | 187 | 1.7 | 2.6 | 0.00 | 0.00 | 0.00 | 46 | 1022.5 |
| 20260902234315 | 60 | 167 | 0.0 | 0.9 | 0.00 | 0.00 | 0.00 | 46 | 1022.6 |
| 20260902233414 | 61 | 295 | 0.0 | 1.7 | 0.00 | 0.00 | 0.00 | 45 | 1022.6 |
| 20260902232416 | 61 | 139 | 0.0 | 1.7 | 0.00 | 0.00 | 0.00 | 46 | 1022.5 |
| 20260902231513 | 61 | 205 | 1.7 | 3.5 | 0.00 | 0.00 | 0.00 | 45 | 1022.6 |
| 20260902230516 | 62 | 214 | 0.9 | 3.5 | 0.00 | 0.00 | 0.00 | 46 | 1022.7 |
| 20260902225516 | 62 | 195 | 1.7 | 3.5 | 0.00 | 0.00 | 0.00 | 45 | 1022.8 |
| 20260902224516 | 61 | 206 | 0.9 | 3.5 | 0.00 | 0.00 | 0.00 | 47 | 1022.8 |
| 20260902223613 | 61 | 159 | 1.7 | 4.3 | 0.00 | 0.00 | 0.00 | 46 | 1022.7 |
| 20260902221713 | 61 | 177 | 1.7 | 5.2 | 0.00 | 0.00 | 0.00 | 48 | 1022.8 |
| 20260902220717 | 61 | 194 | 2.6 | 4.3 | 0.00 | 0.00 | 0.00 | 46 | 1023.0 |
| 20260902215716 | 61 | 225 | 0.9 | 1.7 | 0.00 | 0.00 | 0.00 | 46 | 1023.0 |
| 20260902214715 | 61 | 225 | 0.9 | 2.6 | 0.00 | 0.00 | 0.00 | 46 | 1023.3 |
| 20260902212814 | 62 | 161 | 2.6 | 4.3 | 0.00 | 0.00 | 0.00 | 45 | 1023.2 |